Wind_Speed
6 7 11 7 5 4 8 9 11 11 8 7 2 1 5 7 8 11 10 9 9 7 7 7 6 16 16 13 10 6 4 5 6 8 8 7 9 10 10 11 13 13 13 15 14 12 12 11 9
9 12 12 3 6 5 5 6 8 6 7 6 2 1 4 5 6 9 9 10 10 10 8 9 10 15 16 15 11 6 4 5 5 8 7 7 9 9 10 12 14 14 15 15 13 13 14 13 13
10 10 14 10 7 1 4 5 7 6 6 6 4 3 3 5 7 8 7 10 10 10 10 11 10 8 15 14 11 8 6 5 7 6 7 7 9 10 10 13 14 15 16 14 12 15 16 17 15
4 6 12 2 5 2 2 4 7 6 4 4 4 5 3 3 7 9 10 10 9 9 9 10 10 8 3 11 12 11 8 6 5 7 7 7 10 10 11 14 15 16 15 14 15 16 18 19 18
5 7 11 4 7 2 2 4 6 5 3 3 3 5 4 5 6 9 10 11 11 11 11 12 12 8 10 12 15 13 9 5 9 7 6 8 9 10 13 14 16 17 15 16 16 17 19 20 17
5 6 7 5 6 4 5 4 5 4 3 1 4 7 4 3 4 7 10 11 12 12 11 15 12 11 12 15 15 15 8 7 10 7 9 9 9 10 13 13 17 17 15 17 15 17 18 20 22
10 7 6 5 4 5 2 2 4 5 2 1 2 4 4 3 4 7 9 9 11 13 14 12 12 13 14 10 12 15 11 9 10 11 10 10 9 10 11 11 17 17 15 16 14 15 16 17 18
7 9 7 2 4 6 4 4 2 2 4 1 1 2 1 1 3 7 10 9 11 14 16 17 14 12 13 11 12 15 14 11 14 11 11 11 11 11 9 9 16 17 15 14 12 13 14 17 18
9 9 7 2 8 7 6 7 5 2 4 4 3 2 1 0 3 6 9 11 12 16 17 15 15 14 14 12 14 15 13 13 13 14 13 11 12 11 9 8 15 17 15 14 14 14 17 20 21
10 5 4 4 9 7 4 6 1 2 2 2 3 3 2 1 2 4 8 9 11 12 13 15 13 13 16 16 16 16 14 14 15 15 15 11 10 10 9 8 12 17 15 14 16 16 16 18 19
8 3 5 6 6 5 4 1 3 2 4 1 1 3 2 0 1 3 7 10 11 13 15 15 14 15 18 16 16 16 12 17 15 12 15 11 10 10 9 10 12 14 15 14 15 14 14 14 15
9 3 3 3 5 7 4 5 5 2 3 4 2 2 3 2 1 3 7 8 11 9 12 21 20 17 20 17 16 16 12 16 12 10 12 13 11 10 9 10 12 13 15 14 13 13 13 12 12
11 7 6 1 4 7 2 8 8 5 5 3 1 1 3 3 2 2 4 5 11 10 12 18 18 19 20 16 15 13 13 13 10 9 10 15 12 11 10 10 11 13 14 13 11 10 11 8 10
9 5 2 3 7 6 6 8 9 8 4 3 3 1 1 2 3 3 5 6 8 10 15 16 18 20 19 16 14 13 11 13 10 10 10 16 14 12 10 11 12 12 12 12 9 8 7 6 8
7 7 6 5 5 4 1 4 6 7 5 4 3 3 1 1 4 6 6 8 9 10 13 14 15 14 15 15 10 11 11 10 10 9 15 16 15 13 11 11 12 11 10 11 10 6 3 4 7
6 7 8 8 6 7 2 2 3 5 8 6 3 3 1 3 4 6 7 8 11 12 10 10 12 13 14 15 13 13 9 13 12 10 15 12 12 12 10 11 12 11 8 9 9 6 3 4 5
6 5 6 9 7 7 7 3 3 3 6 8 4 5 2 4 4 4 6 8 10 10 11 11 11 12 14 14 14 11 11 17 16 14 15 15 14 13 10 11 10 11 8 6 8 6 3 2 2
7 6 5 9 11 11 9 8 5 4 6 7 7 5 4 1 4 4 4 6 7 10 11 12 13 14 14 15 13 9 9 19 19 17 17 16 14 14 12 9 8 11 9 8 8 6 4 3 1
8 9 7 9 8 7 4 8 9 9 7 6 8 10 8 6 3 4 4 4 7 8 10 13 13 12 14 16 16 14 12 19 18 21 19 18 16 14 14 13 11 11 10 7 9 7 5 4 3
9 11 10 11 11 9 9 6 12 12 9 7 9 11 13 11 8 5 5 5 6 8 11 12 10 10 10 11 15 17 16 18 19 19 15 15 17 16 16 13 11 13 13 11 9 8 7 5 3
10 12 14 15 13 11 10 10 12 14 10 11 10 10 14 15 12 10 8 8 8 8 10 12 10 10 9 9 12 15 15 17 18 19 20 20 18 17 18 15 13 12 13 11 10 9 9 7 4
10 16 20 17 16 14 11 7 13 14 13 14 12 11 12 14 14 12 11 10 11 10 10 11 12 11 9 10 12 13 20 19 20 17 20 23 21 18 17 17 16 14 12 12 14 11 10 9 7
12 22 19 18 16 12 13 9 15 12 12 15 17 14 14 14 13 12 12 11 10 12 10 9 9 10 12 12 11 12 15 16 14 14 18 24 20 16 18 18 18 18 15 14 17 17 14 12 11
18 21 19 19 17 11 14 16 8 15 14 14 15 14 13 15 15 13 11 11 10 11 13 11 10 10 11 14 13 12 15 16 15 15 18 20 20 19 19 18 16 18 16 15 14 17 17 15 14
17 19 22 23 20 15 14 20 10 16 15 13 12 10 13 15 16 17 15 12 15 13 14 13 11 11 11 13 16 16 15 17 18 18 18 18 21 24 22 20 19 18 18 18 17 19 20 19 17
18 20 23 24 23 24 16 13 13 17 21 13 13 9 13 15 17 15 14 14 14 15 14 16 13 12 12 13 14 16 17 19 19 18 20 21 20 20 19 18 19 19 18 17 17 19 21 22 22
22 23 22 26 24 23 21 15 15 16 18 17 15 11 14 18 21 16 13 8 9 11 13 16 16 14 13 12 14 15 15 17 19 20 20 21 21 22 21 22 21 20 19 18 18 19 21 24 24
28 27 26 26 27 27 25 17 16 16 16 19 17 14 15 17 19 18 17 12 12 11 12 15 16 15 14 14 15 14 15 15 15 16 18 18 19 21 22 22 23 23 23 24 24 23 22 21 25
27 29 28 28 30 32 29 16 15 15 18 22 19 16 17 19 23 25 22 17 12 13 13 15 17 18 15 16 19 19 16 15 14 16 18 17 15 15 16 16 17 21 23 25 24 26 26 24 25
25 29 30 33 34 32 30 9 10 14 18 23 21 16 18 20 20 20 22 19 11 12 13 13 13 17 19 19 19 20 20 18 16 15 14 15 14 13 13 13 16 19 20 22 24 26 28 30 29
Wind_Direction
4 343 320 302 303 320 336 356 355 8 1 6 22 218 182 193 188 192 191 194 197 208 195 184 188 165 157 149 143 125 85 69 87 75 78 78 77 76 73 68 59 49 52 57 66 71 72 67 63
350 355 349 244 211 292 301 354 5 4 12 355 354 126 150 188 194 195 194 182 188 185 190 180 192 188 161 153 145 134 118 72 94 101 95 90 85 79 74 66 64 61 63 62 66 75 72 64 58
15 65 29 85 129 219 313 350 352 12 22 357 30 94 149 175 185 197 194 176 180 190 183 182 189 192 163 161 163 157 141 114 109 112 97 93 89 80 67 71 71 74 74 71 72 74 70 61 53
38 14 356 64 185 175 2 1 341 7 15 346 51 75 136 183 194 192 177 176 177 190 193 178 177 165 171 158 162 167 162 132 135 134 110 105 94 86 76 81 81 82 77 75 70 70 70 67 59
346 334 347 31 176 126 12 6 338 1 357 316 71 83 102 120 158 181 186 186 181 181 178 171 178 174 187 193 175 173 169 163 165 164 120 115 102 98 85 85 89 82 76 75 67 73 73 66 55
15 316 346 42 199 226 291 346 332 337 289 256 88 91 127 160 179 184 188 185 181 180 179 180 186 175 163 158 174 181 176 166 171 167 144 121 110 99 87 91 90 82 79 76 74 79 76 68 54
22 33 25 77 137 191 43 24 14 333 303 192 94 97 114 154 179 187 189 174 173 175 166 167 181 181 167 161 176 191 188 163 170 153 147 123 117 97 93 98 94 88 81 77 77 79 77 69 57
51 32 21 225 127 149 110 66 51 13 25 76 48 44 38 47 224 182 179 168 167 176 176 169 177 181 190 189 177 178 172 169 165 164 149 137 123 107 103 105 102 95 87 83 75 66 63 58 49
48 58 85 81 146 132 115 89 69 49 55 55 32 55 353 228 235 191 178 161 168 182 180 175 180 183 184 180 166 176 169 177 175 161 152 154 133 118 110 110 106 97 90 84 70 57 49 54 53
65 48 71 97 129 131 126 150 129 347 106 60 50 53 30 268 215 183 174 179 182 189 197 189 186 185 173 171 174 183 174 171 162 163 156 151 133 123 117 109 108 107 96 83 73 64 61 62 58
83 15 89 126 134 160 173 141 9 58 15 0 352 37 39 269 194 178 165 171 192 199 205 195 193 190 181 182 190 187 189 176 172 164 154 148 143 133 121 113 113 111 103 92 81 72 65 62 58
107 117 79 122 104 155 158 349 353 56 13 330 290 17 24 113 129 186 152 178 189 196 203 200 193 183 179 183 191 191 181 162 179 169 164 164 157 145 131 124 124 122 111 97 85 79 71 60 46
123 149 342 180 165 138 71 65 62 46 344 327 292 11 36 118 134 159 143 159 179 176 167 175 181 183 189 195 209 218 162 169 186 183 179 174 166 153 141 136 135 129 115 106 91 78 72 60 49
137 152 210 119 131 113 57 58 70 54 34 20 23 30 90 143 203 154 153 154 163 163 168 171 179 184 189 191 197 161 167 172 201 195 172 173 171 162 152 143 140 133 126 119 111 92 74 52 40
166 167 206 253 237 263 28 68 50 35 25 26 38 25 77 173 217 186 170 167 177 168 171 173 178 182 186 197 197 177 181 180 210 213 188 181 172 164 157 148 143 137 137 132 121 106 83 37 20
201 194 219 252 265 255 290 319 18 329 349 359 344 322 303 200 217 207 177 180 183 192 197 203 200 187 187 196 199 201 193 185 189 182 183 185 175 166 164 160 149 149 150 144 135 134 120 50 21
276 256 226 241 257 272 258 279 325 334 336 344 342 330 208 180 193 204 185 187 191 197 197 203 209 205 197 195 190 190 205 194 196 201 200 189 183 176 173 169 160 160 165 161 149 158 142 91 51
300 287 243 258 262 272 256 257 258 289 323 336 328 323 299 166 184 182 204 199 209 213 205 207 212 209 203 197 193 195 220 205 207 213 206 195 190 188 180 175 172 163 168 179 172 163 174 201 155
295 283 262 268 274 264 241 257 272 279 273 296 300 307 302 305 234 206 219 235 226 227 217 206 211 213 213 209 212 207 211 201 198 202 211 212 198 191 188 180 171 175 175 194 199 210 205 213 150
280 279 268 275 282 287 287 254 277 281 274 246 265 272 291 296 290 246 225 247 258 238 226 213 211 213 214 217 215 210 207 197 201 200 193 205 191 192 193 190 169 184 180 199 218 231 227 218 174
268 268 259 260 275 281 287 288 268 268 267 246 250 261 278 297 300 273 250 247 255 251 226 226 228 230 229 214 210 209 193 199 210 213 211 209 192 193 196 195 188 188 185 194 213 231 216 211 193
258 250 255 264 277 281 288 289 284 267 264 243 251 261 266 280 291 284 251 239 251 250 244 225 222 228 225 217 214 206 203 202 206 204 201 194 191 198 198 200 201 204 199 203 205 209 214 216 214
231 251 266 275 277 281 291 282 267 263 258 240 234 237 254 266 276 273 258 237 238 248 244 239 222 211 212 217 213 212 202 201 204 199 199 195 197 208 213 208 209 207 202 206 209 212 217 216 223
249 262 268 269 274 277 284 280 243 253 262 268 259 234 247 261 269 265 267 246 227 244 238 232 234 222 211 213 213 211 205 195 200 204 199 199 201 213 220 223 222 215 215 219 220 220 221 225 224
254 255 265 270 272 278 256 267 227 253 254 268 266 250 249 254 257 272 270 252 230 219 239 234 227 229 226 214 213 215 217 212 206 213 217 218 218 217 227 236 237 225 218 218 221 225 226 230 235
240 245 253 263 270 276 264 272 280 247 259 260 249 232 251 241 237 244 258 255 252 244 228 242 229 230 227 223 218 221 216 222 223 218 222 225 229 232 231 233 234 235 232 233 236 238 235 232 237
246 241 249 257 264 267 271 276 275 259 249 251 244 217 239 244 239 236 223 224 244 246 229 234 238 234 239 234 227 222 222 226 227 227 231 237 240 240 240 245 247 247 250 252 244 240 241 242 244
246 244 243 252 257 263 266 269 281 260 229 236 233 228 246 242 242 230 221 232 247 235 234 241 230 240 244 250 243 234 228 232 240 241 240 241 242 243 242 247 253 256 259 262 265 263 256 251 249
252 247 242 244 247 260 270 262 274 265 231 217 212 227 241 236 239 241 227 229 234 230 237 241 247 234 233 254 245 242 240 237 240 246 253 252 251 251 248 249 256 261 261 264 265 265 263 262 260
254 249 247 244 246 255 265 288 243 256 242 225 212 220 237 220 232 246 232 230 228 229 237 241 237 223 245 246 243 247 250 247 248 253 256 263 261 259 261 263 260 256 256 258 260 257 258 261 260
Height
5895 5895 5893 5892 5895 5892 5891 5892 5890 5889 5889 5888 5886 5887 5887 5887 5889 5892 5891 5891 5893 5894 5897 5901 5903 5903 5905 5906 5907 5908 5909 5909 5911 5911 5912 5913 5914 5914 5915 5915 5914 5914 5914 5915 5914 5913 5912 5911 5910
5896 5895 5892 5889 5892 5892 5892 5890 5890 5890 5890 5888 5887 5885 5886 5887 5888 5889 5890 5891 5893 5894 5896 5900 5901 5904 5904 5905 5907 5908 5909 5910 5912 5912 5913 5914 5916 5916 5917 5917 5916 5916 5915 5916 5916 5915 5914 5912 5912
5896 5894 5894 5892 5892 5892 5891 5890 5890 5890 5889 5888 5887 5885 5885 5886 5887 5888 5890 5891 5892 5894 5896 5899 5901 5902 5901 5905 5906 5908 5909 5911 5912 5913 5914 5915 5916 5917 5918 5918 5918 5917 5917 5917 5917 5917 5915 5914 5913
5897 5896 5896 5895 5893 5893 5892 5891 5891 5890 5889 5889 5887 5886 5886 5886 5886 5888 5889 5891 5891 5893 5895 5898 5900 5902 5901 5904 5907 5908 5909 5910 5913 5914 5916 5917 5917 5918 5920 5919 5919 5918 5918 5919 5919 5919 5917 5916 5916
5897 5897 5895 5894 5894 5894 5893 5893 5892 5890 5889 5889 5888 5887 5887 5887 5887 5887 5889 5891 5892 5893 5894 5896 5899 5902 5903 5905 5907 5909 5910 5912 5914 5915 5917 5918 5920 5920 5921 5920 5920 5920 5920 5920 5922 5920 5919 5919 5920
5898 5896 5896 5894 5895 5893 5893 5893 5893 5891 5891 5890 5889 5887 5887 5887 5887 5887 5889 5890 5891 5893 5893 5879 5898 5901 5903 5905 5907 5909 5910 5911 5913 5916 5918 5919 5921 5921 5923 5922 5921 5922 5922 5923 5924 5923 5922 5922 5923
5897 5895 5895 5893 5894 5894 5894 5894 5893 5893 5891 5889 5888 5887 5887 5886 5886 5887 5889 5889 5890 5893 5894 5896 5899 5902 5903 5906 5907 5909 5910 5912 5913 5916 5919 5920 5921 5922 5924 5924 5923 5923 5924 5925 5926 5926 5925 5925 5925
5898 5897 5895 5893 5893 5894 5895 5894 5893 5892 5891 5890 5889 5887 5887 5887 5886 5887 5888 5889 5891 5893 5895 5896 5899 5902 5904 5905 5907 5908 5910 5911 5914 5916 5918 5920 5921 5923 5925 5925 5925 5925 5926 5928 5929 5929 5928 5927 5927
5899 5898 5896 5894 5894 5894 5893 5893 5893 5892 5891 5890 5889 5888 5888 5887 5886 5886 5887 5888 5890 5892 5894 5896 5898 5900 5902 5905 5907 5908 5909 5911 5912 5916 5918 5920 5920 5923 5925 5927 5927 5927 5928 5929 5930 5931 5930 5929 5929
5900 5900 5898 5896 5895 5894 5893 5892 5891 5893 5891 5890 5889 5888 5888 5887 5887 5886 5887 5889 5890 5892 5894 5895 5897 5899 5902 5904 5906 5907 5908 5910 5913 5916 5918 5919 5922 5924 5926 5927 5927 5928 5929 5931 5931 5932 5931 5930 5930
5900 5900 5899 5896 5895 5894 5893 5892 5892 5892 5892 5891 5889 5888 5888 5887 5886 5886 5886 5887 5889 5891 5893 5895 5897 5899 5901 5902 5904 5905 5906 5908 5913 5914 5917 5920 5922 5924 5926 5927 5927 5928 5931 5932 5933 5933 5933 5931 5931
5901 5900 5900 5898 5895 5893 5892 5892 5891 5891 5892 5892 5890 5889 5887 5886 5887 5886 5885 5887 5889 5890 5891 5893 5895 5899 5900 5901 5902 5901 5904 5909 5912 5916 5918 5920 5923 5924 5926 5927 5928 5929 5931 5933 5934 5935 5935 5933 5933
5900 5900 5900 5898 5896 5895 5895 5893 5891 5891 5892 5892 5891 5890 5888 5886 5887 5887 5886 5887 5887 5889 5890 5892 5896 5898 5900 5901 5902 5903 5906 5910 5913 5915 5917 5920 5923 5925 5927 5927 5929 5930 5931 5933 5934 5935 5936 5935 5935
5899 5900 5901 5899 5897 5896 5896 5894 5892 5891 5891 5891 5891 5890 5889 5888 5888 5887 5886 5888 5889 5889 5891 5893 5895 5898 5899 5900 5902 5905 5907 5909 5912 5914 5916 5920 5922 5926 5927 5929 5929 5932 5932 5933 5935 5936 5937 5937 5936
5898 5898 5901 5901 5900 5898 5896 5895 5893 5892 5891 5891 5890 5890 5889 5889 5889 5888 5887 5887 5889 5891 5892 5894 5895 5897 5899 5901 5901 5905 5906 5908 5911 5913 5916 5920 5922 5926 5928 5929 5930 5932 5933 5934 5936 5937 5937 5938 5938
5897 5898 5898 5900 5899 5898 5897 5895 5894 5892 5891 5890 5890 5889 5889 5889 5889 5889 5888 5888 5889 5891 5893 5894 5895 5897 5898 5900 5902 5905 5906 5908 5911 5914 5917 5920 5923 5926 5928 5929 5930 5931 5933 5934 5936 5937 5938 5939 5939
5895 5896 5897 5898 5897 5897 5897 5895 5893 5892 5891 5890 5890 5889 5888 5889 5889 5889 5888 5888 5889 5890 5892 5894 5895 5896 5898 5899 5902 5904 5905 5907 5911 5913 5916 5920 5923 5924 5927 5929 5930 5931 5932 5934 5936 5937 5937 5939 5939
5895 5895 5895 5896 5896 5895 5896 5894 5893 5893 5891 5890 5889 5889 5888 5889 5888 5889 5889 5888 5888 5889 5891 5892 5894 5896 5898 5899 5901 5902 5904 5906 5909 5912 5915 5918 5921 5923 5926 5929 5930 5931 5932 5934 5936 5936 5937 5938 5939
5893 5893 5893 5893 5893 5893 5894 5894 5893 5892 5891 5890 5888 5888 5887 5888 5888 5888 5888 5888 5888 5889 5889 5890 5892 5894 5897 5898 5900 5901 5902 5904 5906 5910 5913 5916 5918 5922 5924 5927 5929 5931 5932 5934 5935 5936 5937 5939 5939
5891 5891 5890 5891 5891 5891 5891 5893 5892 5892 5890 5889 5888 5887 5885 5886 5887 5887 5887 5887 5888 5889 5889 5889 5891 5892 5895 5896 5898 5900 5901 5903 5905 5908 5911 5914 5916 5919 5923 5926 5927 5930 5931 5932 5934 5936 5937 5938 5938
5889 5889 5887 5887 5888 5889 5889 5889 5890 5891 5890 5888 5887 5887 5885 5884 5885 5885 5886 5886 5887 5888 5889 5889 5889 5891 5892 5894 5895 5898 5899 5902 5903 5904 5907 5911 5914 5918 5921 5923 5925 5928 5929 5930 5932 5934 5936 5936 5936
5886 5885 5883 5885 5886 5887 5888 5889 5887 5887 5888 5887 5887 5887 5885 5884 5884 5884 5885 5885 5886 5886 5887 5887 5888 5889 5890 5892 5894 5895 5898 5900 5900 5902 5905 5909 5912 5915 5918 5921 5923 5926 5927 5928 5930 5932 5934 5935 5935
5882 5879 5881 5882 5883 5884 5885 5886 5884 5884 5884 5885 5885 5885 5884 5882 5881 5883 5883 5884 5885 5886 5886 5886 5887 5888 5889 5890 5892 5895 5896 5899 5901 5903 5904 5908 5911 5913 5916 5918 5921 5923 5924 5926 5927 5929 5931 5932 5933
5876 5876 5877 5878 5879 5882 5881 5880 5883 5882 5881 5881 5881 5882 5883 5882 5880 5880 5881 5883 5883 5885 5885 5885 5885 5887 5888 5889 5891 5893 5896 5898 5900 5902 5904 5907 5910 5912 5913 5915 5917 5920 5922 5923 5925 5927 5928 5929 5930
5872 5873 5873 5873 5874 5877 5878 5875 5880 5878 5878 5878 5878 5878 5879 5880 5879 5880 5879 5880 5881 5881 5884 5885 5885 5886 5888 5888 5889 5891 5894 5897 5899 5901 5903 5905 5908 5910 5912 5914 5916 5918 5920 5921 5922 5924 5927 5928 5929
5865 5868 5868 5868 5869 5870 5872 5873 5875 5876 5875 5876 5876 5875 5875 5876 5876 5876 5877 5877 5878 5879 5881 5883 5884 5884 5886 5888 5888 5890 5893 5895 5897 5899 5902 5903 5905 5907 5910 5912 5914 5915 5917 5919 5922 5924 5924 5926 5927
5860 5861 5864 5863 5864 5864 5866 5870 5870 5870 5871 5872 5873 5872 5871 5872 5872 5872 5873 5874 5874 5875 5878 5880 5882 5883 5884 5886 5887 5887 5890 5892 5895 5897 5900 5902 5904 5906 5908 5909 5911 5912 5913 5916 5919 5920 5921 5924 5925
5852 5856 5858 5858 5859 5859 5861 5864 5865 5864 5866 5867 5869 5869 5868 5868 5869 5869 5870 5870 5871 5872 5874 5877 5880 5881 5882 5884 5885 5885 5887 5889 5892 5895 5897 5899 5901 5903 5905 5907 5908 5909 5911 5912 5914 5916 5918 5920 5920
5848 5849 5852 5854 5854 5854 5855 5860 5860 5860 5861 5861 5863 5864 5864 5864 5864 5865 5866 5867 5868 5870 5872 5873 5874 5876 5880 5880 5880 5882 5883 5885 5888 5891 5894 5896 5897 5899 5901 5903 5904 5905 5906 5907 5908 5909 5910 5913 5914
5843 5844 5846 5846 5848 5849 5850 5857 5855 5855 5856 5858 5859 5860 5862 5861 5862 5862 5862 5863 5866 5867 5869 5870 5871 5873 5875 5876 5877 5879 5880 5881 5882 5886 5889 5892 5894 5896 5897 5898 5899 5899 5899 5899 5900 5901 5902 5903 5904